Regional Weather Roundup
Issued by NWS

Home | Current Version | Previous Version | Graphics & Text | Print | Product List | Glossary On
Versions: 1 2 3 4 5 6 7 8 9 10 11 12 13 14 15 16 17 18 19 20 21 22 23 24 25 26 27 28 29 30 31 32 33 34 35 36 37 38 39 40 41 42 43 44 45 46 47 48 49 50
000
ASUS43 KBIS 302010
RWRND

NORTH DAKOTA REGIONAL WEATHER ROUNDUP
NATIONAL WEATHER SERVICE BISMARCK ND
300 PM CDT WED JUL 30 2014

NOTE: "FAIR" INDICATES FEW OR NO CLOUDS BELOW 12,000 FEET WITH NO
SIGNIFICANT WEATHER AND/OR OBSTRUCTIONS TO VISIBILITY.


NDZ001>003-009>011-017-302100-
NORTHWEST NORTH DAKOTA

CITY           SKY/WX    TMP DP  RH WIND       PRES   REMARKS
WILLISTON      SUNNY     83  48  29 NE13      30.17S
MINOT          PTSUNNY   79  54  41 NW8       30.14S
MINOT AFB      MOSUNNY   78  56  47 N10       30.14R
$$

NDZ018>021-031>035-040>046-302100-
SOUTHWEST NORTH DAKOTA

CITY           SKY/WX    TMP DP  RH WIND       PRES   REMARKS
BISMARCK       PTSUNNY   82  56  40 VRB7      30.13F
DICKINSON      MOSUNNY   81  51  35 MISG      30.16F
GARRISON         N/A     78  60  53 SE3       30.15S
HETTINGER ARPT MOSUNNY   81  51  35 VRB3      30.18S
$$

NDZ004>008-012>016-024-026-027-054-302100-
NORTHEAST NORTH DAKOTA

CITY           SKY/WX    TMP DP  RH WIND       PRES   REMARKS
GRAND FORKS    MOSUNNY   80  56  43 NW5       30.07F
GRND FRKS AFB  SUNNY     80  56  43 NW9       30.09S
DEVILS LAKE    MOSUNNY   77  55  47 N10       30.11S
$$

NDZ022-023-025-028>030-036>039-047>053-302100-
SOUTHEAST NORTH DAKOTA

CITY           SKY/WX    TMP DP  RH WIND       PRES   REMARKS
FARGO          MOSUNNY   80  52  37 N8        30.08F
JAMESTOWN      SUNNY     79  50  36 NE6       30.13S
$$



USA.gov is the U.S. government's official web portal to all federal, state and local government web resources and services.